This demonstration page uses our WeatherBlox Daily Observations layout. Learn more.

Left ArrowRight Arrow

47.50024, -111.30081

Hourly Observations for September 30, 2022

Temp ( °F °C ) Dew Point ( °F °C ) Humidity (%) Winds ( mph kmh ) Pressure ( in mb ) Visibility ( mi km ) Precip ( " mm )
12:53 am 00:53 Cloudy with Light Rain 52 11.1 49 9.4 89 89 W 6 9 30.01 1016 10 16 0.01 0.13
1:53 am 01:53 Cloudy 52 11.1 49 9.4 89 89 W 5 7 30.01 1016 10 16 0.01 0.13
2:53 am 02:53 Cloudy with Light Rain 51 10.6 48 8.9 89 89 Calm 30.07 1018 10 16 0.01 0.25
3:53 am 03:53 Cloudy 51 10.6 47 8.3 86 86 WNW 8 13 30.07 1018 10 16 0.01 0.13
4:53 am 04:53 Cloudy with Light Rain 51 10.6 46 7.8 83 83 WNW 10 17 30.09 1019 10 16 0.01 0.13
5:53 am 05:53 Mostly Cloudy 47 8.3 45 7.2 93 93 SW 7 11 30.10 1019 10 16 0.01 0.25
6:53 am 06:53 Mostly Cloudy 46 7.8 44 6.7 93 93 W 9 15 30.12 1020 10 16 0.00 0.00
7:53 am 07:53 Mostly Cloudy 50 10 47 8.3 89 89 W 8 13 30.12 1020 10 16 0.00 0.00
8:24 am 08:24 Cloudy 51 10.6 47 8.3 86 86 W 6 9 30.09 1019 10 16 0.00 0.00
8:53 am 08:53 Cloudy with Rain 50 10 47 8.3 89 89 WSW 5 7 30.14 1021 5 8 0.01 0.25
9:10 am 09:10 Cloudy with Rain 50 10 47 8.3 89 89 WSW 8 13 30.11 1019 3 4 0.03 0.76
9:23 am 09:23 Cloudy with Light Rain 50 10 48 8.9 93 93 WSW 9 15 30.12 1020 3 4 0.07 1.78
9:31 am 09:31 Cloudy with Rain 50 10 48 8.9 93 93 WSW 7 11 30.12 1020 4 6 0.08 2.03
9:46 am 09:46 Cloudy with Heavy Rain 50 10 48 8.9 93 93 W 6 9 30.13 1020 2 3 0.11 2.79
9:53 am 09:53 Cloudy with Heavy Rain 50 10 48 8.9 93 93 WNW 6 9 30.16 1021 2 2 0.14 3.56
10:00 am 10:00 Cloudy with Heavy Rain 50 10 48 8.9 93 93 W 6 9 30.12 1020 1 2 0.05 1.27
10:08 am 10:08 Cloudy with Rain 50 10 49 9.4 96 96 WNW 10 17 30.12 1020 2 3 0.08 2.03
10:31 am 10:31 Cloudy with Light Rain 50 10 49 9.4 96 96 WNW 7 11 30.13 1020 3 5 0.11 2.79
10:53 am 10:53 Cloudy with Rain 50 10 49 9.4 96 96 WNW 8 13 30.16 1021 3 4 0.14 3.56
11:26 am 11:26 Cloudy with Rain 51 10.6 49 9.4 92 92 W 9 15 30.12 1020 3 5 0.07 1.78
11:35 am 11:35 Cloudy with Rain 51 10.6 49 9.4 92 92 W 9 15 30.12 1020 3 4 0.08 2.03
11:53 am 11:53 Cloudy with Rain 51 10.6 49 9.4 92 92 W 9 15 30.16 1021 2 3 0.11 2.79
12:31 pm 12:31 Cloudy with Light Rain 51 10.6 49 9.4 92 92 W 9 15 30.12 1020 3 5 0.05 1.27
12:53 pm 12:53 Cloudy with Heavy Rain 51 10.6 50 10 96 96 W 5 7 30.17 1022 2 3 0.08 2.03
1:08 pm 13:08 Cloudy with Heavy Rain 51 10.6 50 10 96 96 SW 5 7 30.13 1020 1 2 0.07 1.78
1:47 pm 13:47 Cloudy with Heavy Rain 52 11 50 10 94 94 WSW 7 11 30.11 1020 2 2 0.31 7.87
2:01 pm 14:01 Cloudy with Rain 52 11.1 50 10 93 93 WSW 8 13 30.11 1020 2 3 0.02 0.51
2:08 pm 14:08 Cloudy with Rain 52 11.1 50 10 93 93 WSW 8 13 30.10 1019 2 3 0.03 0.76
2:39 pm 14:39 Cloudy with Light Rain 53 11.7 51 10.6 93 93 W 8 13 30.08 1019 2 3 0.06 1.52
2:53 pm 14:53 Cloudy with Light Rain 52 11.1 50 10 93 93 W 9 15 30.14 1021 3 4 0.07 1.78
3:44 pm 15:44 Cloudy with Light Rain 52 11.1 51 10.6 97 97 NW 6 9 30.10 1019 3 4 0.03 0.76
3:53 pm 15:53 Cloudy with Light Rain 52 11.1 51 10.6 97 97 NW 5 7 30.15 1021 3 4 0.03 0.76
4:53 pm 16:53 Cloudy with Light Rain 53 11.7 51 10.6 93 93 NNW 5 7 30.14 1021 6 10 0.03 0.76
5:25 pm 17:25 Cloudy with Light Rain 53 11.7 51 10.6 93 93 N 3 6 30.08 1019 4 6 0.01 0.25
5:33 pm 17:33 Cloudy with Light Rain 53 11.7 51 10.6 93 93 Calm 30.08 1019 4 6 0.02 0.51
5:53 pm 17:53 Cloudy with Light Rain 53 11.7 51 10.6 93 93 Calm 30.16 1021 4 6 0.03 0.76
6:05 pm 18:05 Cloudy with Light Rain 53 11.7 51 10.6 93 93 Calm 30.08 1019 5 8 0.01 0.13
6:26 pm 18:26 Cloudy with Light Rain 53 11.7 51 10.6 93 93 W 3 6 30.07 1018 5 8 0.01 0.13
6:53 pm 18:53 Cloudy with Light Rain 53 11.7 51 10.6 93 93 NNE 5 7 30.16 1022 5 8 0.01 0.13
7:17 pm 19:17 Cloudy with Light Rain 53 11.7 51 10.6 93 93 NNE 7 11 30.09 1019 6 10 0.01 0.13
7:28 pm 19:28 Cloudy with Mist and Fog 53 11.7 51 10.6 93 93 N 5 7 30.09 1019 5 8 0.01 0.13
7:53 pm 19:53 Cloudy with Mist and Fog 53 11.7 52 11.1 96 96 NNE 6 9 30.16 1021 5 8 0.01 0.13
8:37 pm 20:37 Cloudy with Light Rain 54 12.2 52 11.1 93 93 Calm 30.10 1019 7 11 0.01 0.13
8:53 pm 20:53 Cloudy with Light Rain 54 12.2 51 10.6 90 90 Calm 30.16 1022 5 8 0.01 0.25
9:15 pm 21:15 Cloudy with Light Rain 53 11.7 51 10.6 93 93 NNW 7 11 30.10 1019 5 8 0.03 0.76
9:28 pm 21:28 Cloudy with Light Rain 53 11.7 52 11.1 96 96 NNW 5 7 30.10 1019 6 10 0.03 0.76
9:53 pm 21:53 Cloudy with Rain 53 11.7 51 10.6 93 93 N 6 9 30.18 1022 3 5 0.09 2.29
10:03 pm 22:03 Cloudy with Rain 53 11.7 51 10.6 93 93 N 6 9 30.11 1020 3 5 0.03 0.76
10:53 pm 22:53 Cloudy with Light Rain 53 11.7 51 10.6 93 93 NW 3 6 30.17 1022 3 5 0.13 3.30
11:08 pm 23:08 Cloudy with Rain 52 11.1 51 10.6 97 97 NW 5 7 30.11 1020 3 5 0.02 0.51
11:24 pm 23:24 Cloudy with Rain 52 11.1 51 10.6 97 97 NNW 8 13 30.11 1020 3 5 0.04 1.02
11:40 pm 23:40 Cloudy with Rain 52 11.1 51 10.6 97 97 N 8 13 30.11 1020 3 5 0.07 1.78
11:53 pm 23:53 Cloudy with Light Rain 52 11.1 51 10.6 97 97 N 7 11 30.17 1022 3 5 0.09 2.29

Powered by AerisWeather